CZ-3B R/B (44545 NORAD) Tracking and Keplerian Element Data

This shows tracking and keplerian element data for the satellite.

Feedback or suggestion? Click here.




ElementValue
Catalog44545
NameCZ-3B R/B
Epoch Orbit105
Epoch Day289.92287746
Epoch Year2019
RAAN252.8236
Inclination54.9997
Eccentricity0.582147
Argument of Perigee178.2597
Mean Anonmoly185.5377
Mean Motion4.39550573
Decay Rate0.00021459
L11 44545U 19061D 19289.92287746 .00021459 87338-6 62994-3 0 9992
L22 44545 54.9997 252.8236 5821470 178.2597 185.5377 4.39550573 1054

Live tracking and technical data element details for CZ-3B R/B (NORAD 44545). CZ-3B R/B can be tracked NOW for your location showing map with azimuth and elevation plus other details from your city location.

Track the satellite on the map from your city or location and see movement details for azimuth, elevation, latitude, longitude, range, height, and movement on the map or in text.







IsCatalogInMostPopularTable: catalog: 44545, numindb: 18
Update: records affected: 1



GetName: 44545 CZ-3B R/B

Hit Count: updated at: Thu, 14 Nov 2019 07:31:28 GMT